Regional Weather Roundup
Issued by NWS Sioux Falls, SD

Home | Current Version | Previous Version | Graphics & Text | Print | Product List | Glossary Off
Versions: 1 2 3 4 5 6 7 8 9 10 11 12 13 14 15 16 17 18 19 20 21 22 23 24 25 26 27 28 29 30 31 32 33 34 35 36 37 38 39 40 41 42 43 44 45 46 47 48 49 50

000
ASUS43 KFSD 190502
RWRFSD

WEATHER ROUNDUP FOR SE SOUTH DAKOTA/SW MINNESOTA/NW IOWA
NATIONAL WEATHER SERVICE SIOUX FALLS SD
1200 AM CDT SAT AUG 19 2017

NOTE: "FAIR" INDICATES FEW OR NO CLOUDS BELOW 12,000 FEET WITH NO
SIGNIFICANT WEATHER AND OR OBSTRUCTIONS TO VISIBILITY.


SDZ038>040-050-052>070-190600-
SOUTHEAST SOUTH DAKOTA

CITY           SKY/WX    TMP DP  RH WIND       PRES   REMARKS
BROOKINGS      FAIR      60  59  96 N3        29.97S
CHAMBERLAIN    FAIR      61  59  92 CALM      29.98S
HURON          FAIR      62  59  90 E3        29.94F
MADISON        FAIR      59  59 100 NW7       29.99R
MITCHELL       FAIR      59  57  93 E6        29.96F
SIOUX FALLS    FAIR      62  60  93 W5        29.97R
WINNER         FAIR      64  59  83 SE10      29.99S
$$

MNZ071-072-080-081-089-090-097-098-190600-
SOUTHWEST MINNESOTA

CITY           SKY/WX    TMP DP  RH WIND       PRES   REMARKS
FAIRMONT       FAIR      59  58  96 W3        29.94F
JACKSON        FAIR      55  55 100 CALM      29.90R
LUVERNE        FAIR      59  55  88 NW5       29.96S
MARSHALL       FOG       58  58 100 W7        29.96R VSB 1/4
MONTEVIDEO     FAIR      57  57 100 W3        29.94S
PIPESTONE      MOCLDY    64  61  88 NE6       29.96F
REDWOOD FALLS  FAIR      58  56  93 NW6       29.92S
TRACY          FOG       59  59 100 W3        29.96R VSB 1/4
WINDOM         FOG       57  55  94 CALM      29.96R VSB 1/4
WORTHINGTON    FAIR      58  57  97 CALM      29.96R
$$

IAZ001>003-012>014-020>022-031-032-NEZ013-014-SDZ071-190600-
NORTHWEST IOWA

CITY           SKY/WX    TMP DP  RH WIND       PRES   REMARKS
CHEROKEE       FAIR      62  62 100 CALM      29.94R
DENISON        MOCLDY    68  64  88 NW6       29.95R
ESTHERVILLE    FAIR      57  57 100 NE5       29.92F
LE MARS        FAIR      63  61  94 NW3       29.94F
ORANGE CITY    FAIR      64  63  94 NW6       29.95S
SHELDON        FAIR      61  59  94 NW5       29.93S
SIOUX CITY     FAIR      65  61  87 N5        29.95S
SPENCER        FAIR      60  58  92 CALM      29.94R
STORM LAKE     FAIR      61  59  94 SW7       29.93S
$$

ABBREVIATIONS USED IN REMARKS
   TC - TEMPERATURE IN CELSIUS
  WCI - WIND CHILL INDEX
   HX - HEAT INDEX
  VSB - VISIBILITY




USA.gov is the U.S. government's official web portal to all federal, state and local government web resources and services.